CAPE
22 20 23 33 48 50 30 9 2 0 0 0 0 0 0 0 0 0 0 0 0 0 0 0 0 0 0 0 0 0 0 0 0 0 0 0 0 0 0 0 0 0 0 0
13 22 37 38 42 53 11 14 5 0 0 0 0 0 0 0 0 0 0 0 0 0 0 0 0 0 0 0 0 0 0 0 0 0 0 0 0 0 0 0 0 0 0 0
22 25 26 37 32 37 27 13 5 10 10 0 0 0 0 0 0 0 0 0 0 0 0 0 0 0 0 0 0 0 0 0 0 0 0 0 0 0 0 0 0 0 0 0
17 19 15 11 8 10 9 0 0 0 11 13 1 0 0 0 0 0 0 0 0 0 1 0 0 0 0 0 0 0 0 0 0 0 0 0 0 0 0 0 0 0 0 0
19 8 10 9 13 16 20 0 0 0 0 0 2 0 0 0 0 0 0 0 0 0 1 2 14 0 0 1 0 0 0 0 0 0 0 0 0 0 0 0 0 0 0 0
8 4 5 18 14 14 11 0 0 0 0 0 0 1 0 0 0 0 0 0 0 0 0 0 0 0 0 0 0 0 0 0 0 0 0 0 0 0 0 0 0 0 0 0
12 25 26 10 0 7 0 0 0 0 0 0 0 0 0 0 0 0 0 0 0 0 0 0 0 0 0 0 0 0 0 0 0 1 0 0 0 0 0 0 0 0 0 0
22 9 7 8 7 45 0 0 0 0 0 0 0 0 0 0 0 0 0 0 0 0 0 0 0 0 0 0 0 0 0 0 1 1 1 0 0 0 0 0 0 0 0 0
34 19 13 30 37 1 0 0 0 0 0 0 0 0 0 0 0 0 0 0 0 0 0 0 0 0 0 0 0 0 0 0 12 2 1 0 0 0 0 0 0 0 0 0
43 13 1 0 0 0 0 0 0 0 0 0 0 0 0 0 0 0 0 0 0 0 0 0 0 0 0 0 0 0 0 1 1 1 4 0 0 0 0 0 0 0 0 0
44 10 0 0 0 0 0 0 0 0 0 0 0 0 0 0 0 0 0 0 0 0 0 0 0 0 0 0 0 0 0 0 0 0 0 0 0 0 0 0 0 0 0 0
25 2 0 0 0 0 0 0 0 0 0 0 0 0 0 0 0 0 0 0 0 0 0 0 0 0 0 0 0 0 0 0 0 0 0 0 0 0 0 0 0 0 0 0
3 0 0 0 0 0 0 0 0 0 0 0 0 0 0 0 0 0 0 0 0 0 0 0 0 0 0 0 0 0 0 0 0 0 0 0 0 0 0 0 0 0 0 0
5 2 1 2 0 0 0 0 0 0 0 0 0 0 0 0 0 0 0 0 0 0 0 0 0 0 0 0 0 0 0 0 0 0 0 0 0 0 0 0 0 0 0 0
10 14 6 4 0 0 0 0 0 0 0 0 0 0 0 0 0 0 0 0 0 0 0 0 0 0 0 0 0 0 0 0 0 0 0 0 0 0 0 0 0 0 0 0
16 3 4 8 0 0 0 0 0 0 0 0 0 0 0 0 0 0 0 0 0 0 0 0 0 0 0 0 0 0 0 0 0 0 0 0 0 0 0 0 0 0 0 0
1 5 11 10 0 0 0 0 0 0 0 0 0 0 0 0 0 0 0 0 0 0 0 0 0 0 5 0 0 0 0 0 0 0 0 0 0 0 0 0 0 0 0 0
7 16 29 19 2 0 0 0 0 0 0 0 0 0 0 0 0 0 0 0 0 0 0 0 0 0 0 1 0 0 0 0 0 0 0 0 0 0 0 0 0 0 0 0
22 38 21 0 0 0 0 17 0 0 0 0 0 0 0 0 0 0 0 0 0 0 0 1 0 0 0 0 0 0 0 0 1 0 0 0 0 0 0 0 0 0 0 0
36 0 0 0 6 12 15 0 0 0 0 0 0 0 0 0 0 0 0 0 0 0 0 0 0 0 0 1 0 0 0 0 0 0 0 0 0 1 0 0 0 1 0 0
0 0 0 0 0 0 0 0 0 0 0 0 0 0 0 0 0 0 0 0 0 2 0 0 0 4 9 2 2 0 0 0 0 4 6 6 5 4 4 2 3 4 0 0
0 0 0 0 0 0 0 0 0 0 0 0 0 0 0 0 0 0 0 0 0 0 0 0 0 0 0 0 0 0 0 0 0 3 1 1 1 1 4 4 3 2 2 2
0 0 0 0 0 0 0 0 0 0 0 0 0 0 0 0 0 0 0 0 0 0 2 0 0 0 0 0 0 0 0 0 0 0 0 1 4 2 1 1 1 0 1 0
0 0 0 0 0 0 0 0 0 0 0 0 0 0 0 0 0 0 0 0 0 0 0 0 0 0 0 0 0 0 0 0 0 0 0 1 0 0 0 2 0 0 0 0
0 0 0 0 0 0 0 0 0 0 0 0 0 0 0 0 0 0 0 0 0 0 0 0 0 0 0 0 0 0 0 0 0 0 0 0 0 0 0 0 0 0 0 0
0 0 0 0 0 0 0 0 0 0 0 0 0 0 0 0 0 0 0 0 0 0 0 0 0 0 0 0 0 0 0 0 0 0 0 1 0 0 0 0 0 0 0 0
0 0 0 0 0 0 0 0 0 0 0 0 0 0 0 0 0 0 0 0 0 0 0 0 0 0 0 0 0 0 0 0 0 0 0 0 0 0 0 0 0 0 0 0
CIN
-0 -0 -0 -0 -0 -0 -1 -6 -0 -0 -0 -0 -0 -0 -0 -0 -0 -0 -0 -0 -0 -0 -0 -0 -0 -0 -0 -0 -0 -0 -0 -0 -0 -0 -0 -0 -0 -0 -0 -0 -0 -0 -0 -0
-0 -0 -0 -0 -0 -0 -3 -0 -2 -8 -0 -0 -0 -0 -0 -0 -0 -0 -0 -0 -0 -0 -0 -0 -0 -0 -0 -0 -0 -0 -0 -0 -0 -0 -0 -0 -0 -0 -0 -0 -0 -0 -0 -0
-0 -0 -0 -0 -0 -0 -4 -0 -0 -1 -10 -0 -0 -0 -0 -0 -0 -0 -0 -0 -0 -0 -0 -0 -0 -0 -0 -0 -0 -0 -0 -0 -0 -0 -0 -0 -0 -0 -0 -0 -0 -0 -0 -0
-0 -0 -0 -0 -0 -4 -1 -0 -0 -0 -0 -0 -2 -0 -0 -0 -0 -0 -0 -0 -0 -0 -5 -0 -0 -0 -0 -0 -0 -0 -0 -0 -0 -0 -0 -0 -0 -0 -0 -0 -0 -0 -0 -0
-0 -0 -0 -0 -0 -0 -0 -0 -12 -0 -0 -0 -2 -1 -0 -0 -0 -0 -0 -0 -0 -21 -8 -23 -0 -0 -0 -1 -0 -0 -0 -0 -0 -0 -0 -0 -0 -0 -0 -0 -0 -0 -0 -0
-0 -0 -0 -0 -0 -0 -3 -0 -0 -0 -0 -0 -0 -0 -0 -0 -0 -0 -0 -0 -0 -0 -0 -4 -1 -0 -0 -0 -0 -0 -0 -0 -0 -0 -0 -0 -0 -0 -0 -0 -0 -0 -0 -0
-0 -0 -0 -0 -6 -0 -0 -0 -0 -0 -0 -0 -0 -0 -0 -0 -0 -0 -0 -0 -0 -0 -0 -0 -0 -0 -0 -0 -0 -0 -0 -0 -0 -0 -0 -0 -0 -0 -0 -0 -0 -0 -0 -0
-0 -12 -24 -24 -20 -0 -0 -0 -0 -0 -0 -0 -0 -0 -0 -0 -0 -0 -0 -0 -0 -0 -0 -0 -0 -0 -0 -0 -0 -0 -0 -2 -1 -3 -7 -0 -0 -0 -0 -0 -0 -0 -0 -0
-0 -4 -12 -4 -1 -5 -0 -0 -0 -0 -0 -0 -0 -0 -0 -0 -0 -0 -0 -0 -0 -0 -0 -0 -0 -0 -0 -0 -0 -0 -0 -0 -2 -4 -4 -0 -0 -0 -0 -0 -0 -0 -0 -0
-6 -20 -5 -0 -0 -0 -0 -0 -0 -0 -0 -0 -0 -0 -0 -0 -0 -0 -0 -0 -0 -0 -0 -0 -0 -0 -0 -0 -0 -0 -0 -0 -1 -0 -3 -0 -0 -0 -0 -0 -0 -0 -0 -0
-2 -30 -4 -0 -0 -0 -0 -0 -0 -0 -0 -0 -0 -0 -0 -0 -0 -0 -0 -0 -0 -0 -0 -0 -0 -0 -0 -0 -0 -0 -0 -0 -0 -0 -0 -0 -0 -0 -0 -0 -0 -0 -0 -0
-0 -0 -0 -0 -0 -0 -0 -0 -0 -0 -0 -0 -0 -0 -0 -0 -0 -0 -0 -0 -0 -0 -0 -0 -0 -0 -0 -0 -0 -0 -0 -0 -0 -0 -0 -0 -0 -0 -0 -0 -0 -0 -0 -0
-1 -0 -0 -0 -0 -0 -0 -0 -0 -0 -0 -0 -0 -0 -0 -0 -0 -0 -0 -0 -0 -0 -0 -0 -0 -0 -0 -0 -0 -0 -0 -0 -0 -0 -0 -0 -0 -0 -0 -0 -0 -0 -0 -0
-0 -0 -0 -0 -0 -0 -0 -0 -0 -0 -0 -0 -0 -0 -0 -0 -0 -0 -0 -0 -0 -0 -0 -0 -0 -0 -0 -0 -0 -0 -0 -0 -0 -0 -0 -0 -0 -0 -0 -0 -0 -0 -0 -0
-0 -0 -0 -0 -0 -0 -0 -0 -0 -0 -0 -0 -0 -0 -0 -0 -0 -0 -0 -0 -0 -0 -0 -0 -0 -0 -0 -0 -0 -0 -0 -0 -0 -0 -0 -0 -0 -0 -0 -0 -0 -0 -0 -0
-0 -0 -0 -0 -0 -0 -0 -0 -0 -0 -0 -0 -0 -0 -0 -0 -0 -0 -0 -0 -0 -0 -0 -0 -0 -0 -0 -0 -0 -0 -0 -0 -0 -0 -0 -0 -0 -0 -0 -0 -0 -0 -0 -0
-0 -0 -0 -0 -0 -0 -0 -0 -0 -0 -0 -0 -0 -0 -0 -0 -0 -0 -0 -0 -0 -0 -0 -2 -0 -0 -3 -0 -0 -0 -0 -0 -0 -0 -0 -0 -0 -0 -0 -0 -0 -0 -0 -0
-0 -0 -0 -0 -4 -0 -0 -0 -0 -0 -0 -0 -0 -0 -0 -0 -0 -0 -0 -0 -0 -0 -0 -0 -0 -0 -0 -2 -0 -0 -0 -0 -0 -0 -0 -0 -0 -0 -0 -0 -0 -0 -0 -0
-0 -0 -2 -0 -0 -0 -0 -1 -1 -0 -0 -0 -0 -0 -0 -0 -0 -0 -0 -0 -0 -0 -0 -1 -0 -0 -0 -0 -0 -0 -0 -0 -1 -0 -0 -0 -0 -0 -0 -0 -0 -0 -0 -0
-0 -0 -0 -0 -6 -10 -9 -0 -0 -0 -1 -0 -0 -0 -0 -0 -0 -0 -0 -0 -0 -0 -0 -0 -0 -0 -0 -8 -0 -0 -0 -1 -0 -0 -0 -0 -0 -0 -0 -0 -0 -1 -0 -0
-0 -0 -0 -0 -4 -0 -0 -0 -0 -0 -0 -0 -0 -0 -0 -0 -0 -0 -0 -0 -0 -3 -0 -1 -0 -0 -0 -5 -1 -0 -0 -0 -0 -0 -0 -0 -0 -0 -0 -0 -0 -0 -0 -0
-0 -0 -0 -0 -0 -0 -0 -0 -0 -0 -0 -0 -0 -0 -0 -0 -0 -1 -0 -0 -0 -0 -0 -0 -0 -0 -0 -0 -0 -0 -0 -0 -0 -0 -0 -0 -0 -0 -0 -0 -0 -0 -0 -1
-0 -0 -0 -0 -0 -0 -0 -0 -0 -0 -0 -0 -0 -0 -0 -0 -0 -0 -0 -0 -0 -0 -0 -0 -0 -0 -0 -0 -0 -0 -0 -0 -0 -0 -0 -0 -0 -0 -0 -0 -0 -0 -0 -0
-0 -0 -0 -0 -0 -0 -0 -0 -0 -0 -0 -0 -0 -0 -0 -0 -0 -0 -0 -0 -0 -0 -0 -0 -0 -0 -0 -0 -0 -0 -0 -0 -0 -0 -0 -0 -0 -0 -0 -0 -0 -0 -0 -0
-0 -0 -0 -0 -0 -0 -0 -0 -0 -0 -0 -0 -0 -0 -0 -0 -0 -0 -0 -0 -0 -0 -0 -0 -0 -0 -0 -0 -0 -0 -0 -0 -0 -0 -0 -0 -0 -0 -0 -0 -0 -0 -0 -0
-0 -0 -0 -0 -0 -0 -0 -0 -0 -0 -0 -0 -0 -0 -0 -0 -0 -0 -0 -0 -0 -0 -0 -0 -0 -0 -0 -0 -0 -0 -0 -0 -0 -0 -0 -0 -0 -0 -0 -0 -0 -0 -0 -0
-0 -0 -0 -0 -0 -0 -0 -0 -0 -0 -0 -0 -0 -0 -0 -0 -0 -0 -0 -0 -0 -0 -0 -0 -0 -0 -0 -0 -0 -0 -0 -0 -0 -0 -0 -0 -0 -0 -0 -0 -0 -0 -0 -0
Wind_Speed
25 24 22 20 17 14 8 2 2 1 3 2 2 3 6 4 2 2 0 2 4 4 2 2 3 5 2 2 1 3 2 2 4 9 4 4 4 6 6 5 4 2 4 7
21 21 21 20 17 13 4 4 3 0 4 4 3 4 2 4 3 2 1 2 1 1 3 3 3 1 0 3 2 4 1 1 2 7 5 2 2 3 3 3 3 6 6 6
24 23 20 17 13 10 3 3 4 2 2 2 4 4 5 5 4 4 3 2 2 2 2 3 2 2 2 1 2 2 2 2 5 5 2 2 4 4 4 3 3 4 5 3
26 24 19 14 10 9 3 3 4 3 5 5 4 1 1 6 5 3 6 4 5 3 3 3 4 1 3 3 5 2 3 3 1 5 5 4 8 8 8 6 5 6 6 7
26 21 18 16 17 14 4 4 4 1 2 4 11 5 4 6 2 6 3 4 2 2 4 1 1 1 1 1 4 1 2 1 2 5 7 8 11 11 12 13 10 7 7 11
24 20 18 17 18 15 3 1 1 3 4 4 5 4 5 6 7 2 1 4 4 3 1 2 3 4 4 3 1 1 2 2 1 4 1 7 8 13 15 12 11 14 16 12
21 17 16 16 18 19 1 2 3 3 2 4 5 4 5 4 3 5 3 4 4 3 1 2 3 4 8 6 9 6 4 4 3 4 2 4 7 5 8 7 7 6 8 5
15 13 14 16 19 20 2 1 3 3 2 3 2 6 4 5 3 3 4 3 3 4 2 1 3 2 2 6 9 8 9 3 1 3 3 7 9 6 3 3 2 4 3 4
16 12 12 12 11 11 4 2 1 3 5 3 2 4 4 4 3 1 2 2 2 4 2 2 3 4 3 2 1 4 8 7 5 3 4 5 3 6 7 4 3 5 5 5
16 15 14 13 12 12 5 2 1 4 4 1 2 3 4 4 3 3 2 3 3 3 2 3 3 4 2 3 3 4 4 3 13 8 5 6 3 8 4 1 2 4 3 2
16 15 14 13 12 8 4 1 2 3 2 1 2 2 4 3 2 4 3 4 2 2 3 3 3 3 2 2 3 2 6 6 5 4 4 8 7 4 2 2 5 3 5 5
17 15 14 13 11 8 4 3 2 2 4 3 2 2 2 2 4 5 1 3 3 4 3 1 1 1 2 1 3 4 3 4 3 5 4 3 3 2 5 3 5 6 3 4
16 15 13 12 12 11 7 3 2 3 3 3 3 4 4 3 2 2 4 1 1 2 3 4 1 1 3 2 5 2 3 1 3 4 4 9 14 14 12 10 3 6 7 4
16 14 14 13 13 14 9 4 3 3 3 4 1 2 2 2 2 2 3 5 4 5 2 2 3 2 4 4 3 4 5 4 3 7 9 12 9 5 4 16 16 8 9 7
17 16 13 14 16 18 10 4 3 3 3 3 2 2 3 3 2 5 4 4 3 2 2 2 3 2 1 2 1 3 6 9 6 11 13 14 15 17 17 15 14 13 13 11
17 15 13 13 13 6 3 4 4 4 2 5 2 3 2 5 5 3 1 2 2 3 4 3 3 3 4 3 4 6 6 7 11 12 13 14 18 17 17 21 20 16 12 10
17 15 14 13 11 5 4 2 2 4 3 4 3 3 4 3 4 2 1 1 2 3 2 3 3 3 4 2 12 4 10 11 11 9 6 16 17 15 11 12 13 11 9 8
17 17 18 19 14 8 5 3 6 4 5 4 4 3 4 2 2 2 0 1 2 2 3 1 2 0 2 4 7 5 6 7 9 13 13 15 19 19 20 17 18 20 18 16
17 18 15 5 5 3 1 3 7 4 4 3 3 4 3 2 1 1 3 2 2 1 2 3 3 3 5 6 4 4 10 13 18 18 19 20 21 21 20 18 18 20 18 15
17 5 4 3 2 2 2 6 4 5 4 3 2 1 2 3 2 3 2 1 2 1 4 3 3 3 7 2 6 10 12 15 17 19 19 18 18 19 20 20 18 18 17 16
4 3 2 1 4 3 4 3 4 3 5 1 2 3 1 1 2 3 1 2 2 1 4 2 3 3 2 6 8 10 13 15 16 17 19 19 21 21 20 20 21 18 18 18
5 6 5 3 5 5 7 1 4 2 3 1 3 4 3 2 1 2 3 2 0 5 1 1 3 3 6 6 11 14 13 13 16 16 19 20 23 21 19 19 19 19 17 16
4 6 6 5 4 8 5 2 5 2 2 2 1 2 1 4 3 0 1 2 5 2 2 4 3 5 7 9 11 14 13 14 16 19 18 21 19 20 19 19 18 17 13 12
5 5 3 4 4 3 5 4 4 4 2 2 2 1 2 1 3 2 1 5 1 3 2 3 0 8 11 11 12 13 17 18 18 19 20 19 18 18 19 12 3 5 8 8
4 5 2 3 4 1 3 2 1 2 2 3 2 3 2 2 2 2 2 5 4 6 2 2 6 10 11 14 15 15 16 16 17 17 17 17 16 16 14 9 5 4 6 7
5 4 3 1 3 4 3 0 3 1 2 2 3 2 4 4 3 1 6 3 5 2 2 6 7 10 12 15 14 15 15 16 17 16 15 16 14 13 12 7 5 2 4 4
4 1 1 3 1 3 3 3 4 1 3 2 3 3 8 1 1 3 4 4 2 2 7 6 7 10 14 14 14 15 16 17 16 15 13 13 12 9 6 6 5 6 9 9
Wind_Direction
183 181 176 171 156 146 135 192 206 222 93 107 215 192 203 173 161 36 62 152 207 219 225 224 227 216 228 325 190 124 99 178 246 233 263 216 196 205 164 135 236 207 149 276
167 179 169 155 154 170 144 165 197 197 106 184 218 259 198 171 162 168 148 192 218 68 189 237 204 154 215 16 95 160 164 232 332 336 347 342 221 235 223 120 103 190 136 266
170 156 150 145 162 205 142 192 170 164 177 201 182 182 209 199 183 171 153 200 222 97 252 237 271 197 211 32 111 101 146 213 189 203 225 9 305 305 254 191 131 184 224 272
151 148 143 156 179 199 242 175 218 190 164 205 190 236 261 185 175 204 183 197 198 199 219 215 211 19 353 23 348 69 120 216 251 261 275 271 260 266 272 225 230 198 226 216
148 144 153 165 189 213 254 174 150 102 174 132 189 207 236 198 160 152 197 170 161 172 209 230 124 138 203 219 332 88 18 195 330 280 272 276 269 256 246 241 239 238 249 259
138 148 170 189 206 217 237 130 67 137 157 139 149 205 201 206 132 12 29 154 154 202 237 203 248 223 262 230 209 264 159 130 69 257 326 321 282 227 227 236 231 230 243 245
141 163 186 204 218 211 198 213 111 106 191 170 192 171 175 156 137 144 172 135 145 173 99 278 264 254 250 228 237 203 177 179 167 261 1 242 244 304 239 237 247 263 259 208
144 174 195 206 201 195 150 196 124 138 188 173 131 151 124 105 94 129 161 165 162 149 71 29 309 297 297 240 220 197 200 168 242 228 213 296 312 332 320 178 229 327 251 71
144 140 134 144 151 140 88 54 342 110 125 237 98 141 148 144 146 89 102 67 139 72 100 166 203 230 241 289 247 21 182 205 200 187 217 243 205 309 316 328 281 354 73 87
131 125 114 117 126 124 112 82 14 96 110 327 78 139 164 126 106 121 139 157 82 59 141 191 205 250 246 251 221 183 128 185 226 239 252 277 302 304 292 135 260 347 8 77
128 120 110 102 110 122 96 143 351 121 112 52 47 87 121 85 115 145 194 71 349 71 172 198 222 201 263 321 272 205 168 169 196 200 237 260 338 10 101 315 335 344 350 352
129 118 108 98 92 100 108 95 342 348 79 118 39 70 91 83 154 131 44 149 143 174 90 290 121 193 42 192 270 330 236 190 214 200 230 106 60 34 288 234 275 307 288 178
122 112 111 102 84 79 100 105 359 57 85 33 60 45 17 78 115 153 123 325 163 96 160 163 156 202 131 199 241 287 283 110 223 10 309 306 314 313 296 311 309 338 314 289
120 115 106 101 84 78 74 68 336 73 93 105 280 330 26 11 91 93 90 126 59 92 69 123 139 163 174 222 244 189 220 356 241 257 286 292 291 294 323 308 298 281 282 272
121 113 108 102 94 91 79 76 37 48 113 144 136 317 14 14 92 98 100 95 103 112 63 95 215 230 112 228 50 234 206 249 252 270 280 276 282 291 290 285 279 276 269 262
118 114 110 111 117 84 61 46 19 9 64 91 83 324 318 20 56 78 85 133 131 144 150 203 237 247 145 200 233 234 228 237 241 261 268 273 274 279 277 281 279 271 248 231
113 112 112 100 93 70 71 121 182 34 65 74 34 0 335 353 53 22 105 110 175 150 200 206 204 216 188 199 259 262 280 279 275 258 291 289 282 278 285 281 286 285 277 269
120 116 112 109 96 71 37 359 44 52 83 66 96 282 7 352 339 329 160 129 21 316 206 358 203 243 152 257 247 275 262 268 284 292 295 282 288 284 276 271 273 271 265 260
121 119 107 59 41 55 251 82 77 51 100 113 83 120 240 4 290 281 360 91 42 219 217 230 151 193 221 240 242 296 324 302 294 296 290 285 279 276 272 268 265 261 259 257
115 61 57 45 42 247 135 10 30 16 13 50 99 30 309 94 9 303 27 18 227 226 236 136 213 248 241 81 347 316 295 293 295 290 289 291 284 284 281 274 268 260 259 257
51 74 84 45 331 60 32 37 72 326 9 255 231 173 202 320 123 237 166 233 247 318 258 236 230 208 91 252 276 283 284 285 285 279 279 280 281 281 279 273 265 256 248 245
135 124 84 48 36 38 78 320 330 104 213 257 160 232 190 284 60 94 301 219 115 246 189 135 251 93 286 276 288 292 295 295 294 289 288 287 287 280 278 274 265 253 241 234
46 49 56 60 314 43 105 218 308 340 252 256 15 321 170 359 42 25 3 34 235 327 249 226 189 317 325 306 302 304 306 305 300 300 297 297 294 295 289 284 265 235 222 223
76 100 42 117 321 245 183 181 193 235 156 159 123 294 119 213 45 176 114 246 336 295 297 227 291 327 309 306 316 319 314 315 309 305 307 305 309 306 306 303 306 190 200 208
90 76 185 198 220 225 229 222 339 259 160 99 35 25 71 327 30 204 341 334 256 212 254 273 313 314 308 318 322 318 314 313 313 310 308 313 315 311 312 324 300 208 198 198
75 53 86 270 59 312 346 155 256 241 134 90 54 100 44 275 171 91 228 201 233 237 245 299 300 303 312 316 316 312 311 312 309 309 310 314 315 314 312 323 348 341 171 138
62 320 97 142 215 209 231 168 233 220 81 162 116 96 228 332 286 269 216 224 235 262 297 295 300 304 309 308 307 312 314 312 312 308 315 314 314 314 336 0 14 66 83 88